This is the latest recevied weather packets stored in our database for station/object KC1IUC-13. If no packets are shown the sender has not sent any weather packets the latest 10 day(s).
| Time | Temp. | Humidity | Pressure | Rain* | Wind** | Luminosity | Snow |
|---|---|---|---|---|---|---|---|
| 1777210024 | 7.22° C | 91% | 1016.2 hPa | 0.25 mm | - | 113 W/m² | - |
| 1777209484 | 7.22° C | 91% | 1015.9 hPa | 0.25 mm | - | 88 W/m² | - |
| 1777208944 | 6.67° C | 91% | 1015.9 hPa | 0.25 mm | - | 102 W/m² | - |
| 1777208404 | 6.67° C | 91% | 1015.9 hPa | 0 mm | - | 99 W/m² | - |
| 1777208044 | 6.67° C | 91% | 1015.9 hPa | 0 mm | - | 94 W/m² | - |
| 1777207504 | 6.11° C | 91% | 1015.5 hPa | 0 mm | - | 100 W/m² | - |
| 1777206964 | 6.11° C | 91% | 1015.9 hPa | 0 mm | - | 70 W/m² | - |
| 1777206424 | 6.11° C | 91% | 1015.9 hPa | 0 mm | - | 76 W/m² | - |
| 1777205884 | 5.56° C | 91% | 1015.5 hPa | 0 mm | - | 67 W/m² | - |
| 1777205344 | 5.56° C | 90% | 1015.5 hPa | 0 mm | - | 64 W/m² | - |
| 1777204804 | 5.56° C | 90% | 1015.5 hPa | 0 mm | - | 51 W/m² | - |
| 1777204444 | 5.56° C | 90% | 1015.2 hPa | 0 mm | - | 46 W/m² | - |
| 1777203904 | 5.56° C | 90% | 1015.5 hPa | 0 mm | - | 48 W/m² | - |
| 1777203364 | 5° C | 90% | 1014.9 hPa | 0 mm | - | 47 W/m² | - |
| 1777202824 | 5° C | 90% | 1015.2 hPa | 0 mm | - | 41 W/m² | - |
| 1777202284 | 5° C | 90% | 1014.9 hPa | 0 mm | - | 29 W/m² | - |
| 1777201744 | 5° C | 90% | 1014.9 hPa | 0 mm | - | 24 W/m² | - |
| 1777201204 | 5° C | 90% | 1014.9 hPa | 0 mm | - | 13 W/m² | - |
| 1777200844 | 5° C | 90% | 1014.5 hPa | 0 mm | - | 12 W/m² | - |
| 1777200304 | 4.44° C | 90% | 1014.5 hPa | 0 mm | - | 13 W/m² | - |
| 1777199764 | 4.44° C | 90% | 1014.5 hPa | 0 mm | - | 15 W/m² | - |
| 1777199224 | 4.44° C | 89% | 1014.5 hPa | 0 mm | - | 8 W/m² | - |
| 1777198684 | 4.44° C | 89% | 1014.2 hPa | 0 mm | - | 4 W/m² | - |
| 1777198144 | 4.44° C | 89% | 1013.8 hPa | 0 mm | - | 2 W/m² | - |
| 1777197604 | 4.44° C | 89% | 1013.8 hPa | 0 mm | - | 0 W/m² | - |
* Rain latest hour (hover to see other rain measurements)
** Current wind speed in m/s (hover to see current wind gust speed)